This is the latest recevied weather packets stored in our database for station/object KK4PWJ-13. If no packets are shown the sender has not sent any weather packets the latest 1 day(s).
| Time | Temp. | Humidity | Pressure | Rain* | Wind** | Luminosity | Snow |
|---|---|---|---|---|---|---|---|
| 1778027808 | 20.56° C | 53% | 1011.9 hPa | 0 mm | 0 m/s | 0 W/m² | - |
| 1778027505 | 21.11° C | 55% | 1011.8 hPa | 0 mm | 0 m/s | 0 W/m² | - |
| 1778027201 | 21.67° C | 52% | 1011.8 hPa | 0 mm | 0 m/s | 0 W/m² | - |
| 1778026897 | 21.67° C | 52% | 1011.7 hPa | 0 mm | 0 m/s | 0 W/m² | - |
| 1778026593 | 21.67° C | 49% | 1011.7 hPa | 0 mm | 0 m/s | 0 W/m² | - |
| 1778026291 | 22.22° C | 49% | 1011.7 hPa | 0 mm | 0 m/s | 1 W/m² | - |
| 1778025988 | 22.22° C | 49% | 1011.6 hPa | 0 mm | 0 m/s | 1 W/m² | - |
| 1778025685 | 22.78° C | 47% | 1011.4 hPa | 0 mm | 0.45 m/s, 138° | 2 W/m² | - |
| 1778025383 | 22.78° C | 48% | 1011.6 hPa | 0 mm | 0.45 m/s, 129° | 3 W/m² | - |
| 1778025080 | 22.78° C | 46% | 1011.4 hPa | 0 mm | 0 m/s | 5 W/m² | - |
| 1778024777 | 23.33° C | 45% | 1011.4 hPa | 0 mm | 0 m/s | 5 W/m² | - |
| 1778024473 | 23.89° C | 43% | 1011.4 hPa | 0 mm | 0.45 m/s, 112° | 8 W/m² | - |
| 1778024171 | 23.89° C | 42% | 1011.4 hPa | 0 mm | 0 m/s | 10 W/m² | - |
| 1778023868 | 23.89° C | 40% | 1011.3 hPa | 0 mm | 0 m/s | 11 W/m² | - |
| 1778023566 | 24.44° C | 41% | 1011.4 hPa | 0 mm | 0 m/s | 13 W/m² | - |
| 1778023263 | 24.44° C | 43% | 1011.4 hPa | 0 mm | 0.45 m/s, 125° | 14 W/m² | - |
| 1778022960 | 25° C | 40% | 1011.3 hPa | 0 mm | 0 m/s | 16 W/m² | - |
| 1778022659 | 25° C | 39% | 1011.3 hPa | 0 mm | 0 m/s | 18 W/m² | - |
| 1778022356 | 25° C | 40% | 1011.2 hPa | 0 mm | 0.45 m/s, 82° | 19 W/m² | - |
| 1778022052 | 25° C | 38% | 1011.3 hPa | 0 mm | 0.45 m/s, 160° | 22 W/m² | - |
| 1778021749 | 25° C | 39% | 1011.4 hPa | 0 mm | 0.45 m/s, 117° | 29 W/m² | - |
| 1778021445 | 25° C | 38% | 1011.3 hPa | 0 mm | 0.45 m/s, 156° | 33 W/m² | - |
| 1778021142 | 25.56° C | 38% | 1011.4 hPa | 0 mm | 0.45 m/s, 152° | 37 W/m² | - |
| 1778020840 | 25.56° C | 37% | 1011.5 hPa | 0 mm | 0.45 m/s, 160° | 51 W/m² | - |
| 1778020536 | 25° C | 37% | 1011.5 hPa | 0 mm | 0.45 m/s, 65° | 59 W/m² | - |
* Rain latest hour (hover to see other rain measurements)
** Current wind speed in m/s (hover to see current wind gust speed)